Retour au catalogue

STARLINK-37877

ActifCommunicationsSSO
NORAD 69335·PAYLOAD·🇺🇸 United States

Lancé Jun 3, 2026 depuis Vandenberg Space Force Base

Loading…

Prochains Passages (prochaines 24 heures)

TLE

FraisSource: CelesTrak SupGP

Époque: Sep 14, 2026, 22:51 UTC

1 69335C 26122G   26257.95256944  .00045544  00000+0  14139-2 0  2573
2 69335  97.2824 286.6121 0001473  88.9637  17.8259 15.33413424    15

Suivez STARLINK-37877 en temps réel avec AllMySat

Download on the App Store